User: anonymous   Login
Location: Unspecified
(0.0000°N, 0.0000°E)
Time: 04:18:53
(UTC+02:00)
Language:

Cosmos 1892 Rocket - Orbit

View from above orbital plane
View from above orbital plane
View from above satellite
View from above satellite

Ground track
Ground track

The orbit data is extracted from the following two-line orbital elements,

1 18422U 87088B   16121.32674068  .00000118  00000-0  11561-4 0  9993
2 18422  82.5139 203.7142 0019602   3.7046  59.9810 14.82857009540638
Epoch (UTC): 30 April 2016 07:50:30
Eccentricity: 0.0019602
inclination: 82.5139°
perigee height: 606 km
apogee height: 634 km
right ascension of ascending node: 203.7142°
argument of perigee: 3.7046°
revolutions per day: 14.82857009
mean anomaly at epoch: 59.9810°
orbit number at epoch: 54063

The dashed part of the orbit path shows where the satellite is in the earth's shadow,  

DLR